Theta_e
337 336 336 338 339 340 340 339 338 338 337 336 336 335 333 331 331 328 329 332 330 329 329 329 329 328 326 327 326 327 326 325 325 328 331 332 331 331 330 327 330 330 332
336 335 337 338 338 339 339 337 336 336 335 334 334 334 333 331 330 329 329 329 330 328 330 329 327 327 326 325 326 327 326 325 326 327 327 330 331 332 331 332 332 332 332
336 336 336 338 338 337 337 336 336 335 334 332 331 332 332 331 332 329 329 328 328 328 329 328 327 326 325 327 327 326 326 326 327 327 327 328 329 332 332 331 331 331 330
336 336 336 337 337 337 337 336 335 334 333 331 330 330 329 329 333 330 329 328 328 329 327 328 325 326 326 327 326 325 327 327 327 328 328 329 330 331 330 330 328 325 325
337 336 336 337 336 334 332 332 333 331 331 330 329 329 330 328 329 328 327 327 328 326 328 325 326 326 326 327 326 326 327 328 330 329 330 330 330 330 328 326 324 324 323
338 338 335 336 333 332 333 333 332 331 331 329 329 328 329 327 328 328 326 327 326 327 326 325 326 326 325 324 325 325 325 327 330 329 329 329 328 327 326 324 323 322 321
338 338 335 335 333 333 334 333 330 330 330 328 328 328 328 327 328 328 326 326 326 326 325 325 326 324 321 321 323 324 325 327 328 328 328 327 326 326 325 323 321 319 319
337 337 335 334 333 334 334 332 329 329 328 328 327 327 327 326 327 328 326 324 326 325 325 326 321 318 317 317 321 325 325 325 326 326 327 327 326 325 323 321 318 318 317
336 337 335 333 333 334 334 332 330 328 327 325 326 326 326 326 326 327 326 324 325 325 326 320 318 317 317 316 323 324 324 324 325 325 326 326 325 324 321 319 317 317 316
337 336 333 333 333 333 333 333 330 328 327 326 324 325 325 326 325 325 325 324 324 324 322 318 318 317 317 317 323 322 323 323 322 322 323 325 323 322 320 318 316 316 316
337 335 334 332 332 333 333 333 331 330 328 326 326 324 324 325 325 324 324 325 324 323 320 319 318 318 318 318 321 322 322 322 322 322 321 323 323 322 319 318 316 315 315
335 335 335 333 331 332 333 332 331 331 329 327 325 324 322 323 324 324 324 324 325 324 321 320 319 318 320 320 322 322 321 321 321 320 318 322 322 321 319 318 316 315 314
335 334 335 334 332 332 332 331 330 330 330 328 326 323 323 323 323 324 324 324 324 322 319 319 319 320 322 323 322 322 320 321 321 320 319 317 320 321 319 317 316 315 314
335 334 334 334 332 332 330 330 330 330 329 326 325 324 324 325 324 324 323 324 324 320 319 319 319 320 323 323 322 322 322 321 320 319 319 316 317 320 319 317 316 315 313
335 335 334 333 332 333 331 332 331 329 329 328 326 324 324 325 324 324 323 323 322 320 319 321 322 322 323 321 322 322 322 321 320 318 319 317 316 318 319 318 316 315 314
335 335 334 333 332 331 332 331 329 329 329 328 326 325 323 325 325 324 323 323 319 320 320 323 322 323 322 322 322 321 322 322 321 319 318 319 318 316 317 319 318 316 315
335 334 334 333 331 331 331 330 329 329 329 328 328 325 325 325 324 323 324 324 322 322 322 322 322 322 322 323 323 322 322 322 322 321 320 317 317 318 316 316 318 318 317
334 334 334 334 332 330 330 330 329 328 329 328 328 327 326 326 325 325 323 324 323 322 322 321 322 322 322 322 323 322 323 322 322 322 321 320 318 317 317 317 316 316 317
334 334 334 334 333 330 330 330 329 328 328 328 327 327 327 327 325 325 324 322 322 322 321 321 322 322 322 322 322 322 322 321 321 321 321 321 321 319 318 317 316 316 316
334 334 334 333 333 331 330 330 329 328 327 327 327 327 327 326 325 324 323 321 320 320 321 321 321 321 321 321 322 323 323 321 321 321 321 321 321 321 320 318 317 317 316
333 333 333 333 333 331 330 329 329 328 328 327 326 326 326 326 325 324 323 322 320 319 320 320 320 321 321 322 323 322 321 321 321 321 321 321 321 321 321 320 319 318 317
332 333 332 332 332 332 331 330 329 328 328 327 327 326 325 325 324 324 323 322 321 319 319 319 320 320 321 322 322 322 320 320 321 321 321 321 321 321 322 321 319 319 318
330 332 332 332 332 332 332 330 329 329 328 327 326 326 326 325 324 323 322 322 321 320 320 319 319 319 320 321 323 322 318 318 318 322 321 321 321 321 321 320 320 319 318
328 331 332 331 331 332 332 331 330 329 328 327 327 326 325 325 325 323 322 321 321 322 321 320 319 320 322 322 323 323 322 321 318 318 321 322 322 321 321 320 320 320 319
323 329 331 331 331 332 331 331 330 330 329 328 328 327 326 325 325 324 323 322 321 321 323 323 322 321 322 322 322 323 322 322 321 321 321 320 320 320 320 320 320 320 320
319 324 329 331 331 331 332 331 331 330 330 329 328 327 326 325 325 324 324 322 322 322 323 323 324 323 322 322 322 323 323 322 321 320 319 318 318 319 320 319 319 319 320
Wind_Speed
12 15 14 15 15 16 18 20 19 17 17 16 15 16 16 16 16 16 17 17 17 18 18 19 19 19 18 18 19 20 21 20 19 16 18 18 18 17 17 18 17 15 16
17 15 16 16 17 16 15 16 16 15 13 13 13 14 15 14 15 14 16 16 18 18 18 19 18 16 17 17 17 16 16 16 16 18 17 18 18 16 19 21 25 26 24
18 17 16 17 17 16 15 15 16 12 12 11 11 12 15 15 13 13 16 17 17 17 17 17 16 16 15 15 15 16 17 17 15 13 15 17 16 19 20 21 22 21 19
18 18 18 17 17 16 14 12 12 13 13 12 12 13 13 14 14 15 17 15 16 16 16 16 15 14 14 13 14 15 17 15 14 11 10 12 13 16 17 17 16 15 15
17 17 17 16 16 14 13 12 10 12 13 13 13 14 13 12 13 12 12 14 15 15 14 13 13 13 12 13 14 16 14 14 11 9 10 15 17 15 16 14 13 14 14
18 14 16 15 15 14 13 12 12 13 13 13 14 14 13 14 13 13 10 14 15 13 12 11 11 11 11 13 15 12 11 11 11 14 16 17 15 14 13 14 14 14 14
19 14 14 16 14 14 14 13 13 15 14 13 14 14 14 14 14 12 10 15 13 13 12 10 10 10 11 12 13 12 13 12 13 13 14 14 12 13 13 14 14 14 14
15 15 16 16 14 14 14 13 14 15 15 15 13 14 15 15 14 13 11 13 13 12 11 10 9 10 10 11 12 12 13 9 10 11 12 12 12 12 13 13 14 14 13
15 15 17 17 16 15 15 14 14 14 15 12 15 14 15 15 15 13 12 11 14 12 11 10 9 9 10 11 12 12 11 9 7 7 8 10 10 11 11 12 12 12 12
20 17 15 17 17 17 16 16 15 15 15 13 13 17 15 15 16 16 13 11 15 13 11 10 9 8 9 11 12 11 10 8 6 5 3 8 9 9 10 11 11 11 10
22 19 18 17 17 17 18 18 16 16 15 15 15 15 16 17 16 16 16 14 13 11 10 8 8 7 7 8 8 6 7 7 4 4 4 6 7 8 8 8 9 9 8
27 23 21 20 18 18 18 19 18 18 18 17 15 14 13 18 19 18 15 14 14 13 10 9 8 7 7 7 5 3 5 3 1 2 3 5 4 6 5 6 6 6 6
29 23 25 24 22 22 21 19 18 21 21 17 15 15 15 14 16 19 18 17 15 14 13 11 9 9 6 4 4 3 4 3 3 1 2 1 2 4 4 4 4 4 4
28 27 23 24 23 25 25 24 22 23 24 21 18 17 22 20 20 19 18 19 17 16 13 11 9 9 7 6 6 7 6 5 5 2 0 1 3 4 4 3 3 3 3
26 30 30 26 26 27 28 27 25 26 27 25 23 21 23 22 23 21 19 21 20 17 16 13 11 10 9 11 11 10 8 8 6 5 4 2 4 5 5 4 3 4 4
31 31 32 32 30 28 29 29 26 26 27 28 27 26 26 24 23 22 21 18 20 19 18 15 14 13 12 12 11 10 10 9 9 9 9 8 7 8 8 7 6 7 7
36 34 31 33 32 33 33 30 27 28 29 31 31 29 29 28 27 23 23 22 21 19 18 17 16 15 14 14 14 12 11 12 11 12 13 13 12 10 10 11 11 11 11
37 35 34 35 35 35 36 35 32 32 32 33 32 29 31 31 28 27 27 26 24 22 21 21 19 18 17 17 16 14 14 12 12 14 15 15 15 15 14 13 14 15 14
38 36 35 38 40 40 38 36 35 35 34 34 33 32 33 33 30 29 28 29 27 26 25 24 22 22 21 20 17 16 14 14 14 14 17 18 17 17 16 17 17 18 17
38 38 38 37 40 42 40 38 38 36 37 38 36 36 34 33 32 32 30 29 29 28 27 27 27 24 23 20 18 17 17 17 17 19 21 21 21 21 20 19 19 20 20
40 41 41 41 38 41 37 38 38 40 41 39 39 38 38 37 35 35 34 33 32 31 32 30 27 26 25 22 17 19 18 19 21 24 25 26 26 25 24 22 22 21 22
40 43 42 41 40 43 37 38 36 35 36 41 40 41 40 40 39 38 40 38 36 34 34 33 31 29 28 25 17 12 2 12 27 32 31 31 29 27 27 26 23 22 23
34 39 41 46 45 47 44 34 31 29 29 31 38 44 45 43 43 42 43 43 40 38 39 38 36 35 26 30 29 11 3 5 2 9 18 25 27 25 25 23 22 23 25
36 40 47 45 42 44 43 36 37 36 33 40 40 40 40 46 46 45 44 44 45 42 41 42 39 38 32 25 27 36 25 6 4 3 9 17 23 24 24 22 22 25 25
33 37 40 42 40 41 41 44 38 36 36 31 31 35 40 42 49 49 47 46 46 46 46 44 41 42 39 29 29 24 32 30 27 12 7 14 21 25 25 24 21 24 23
29 33 37 38 40 41 41 43 42 40 37 32 33 35 37 40 46 51 51 48 48 47 43 46 46 43 42 39 32 34 27 17 21 18 10 13 15 18 24 27 27 25 25
Wind_Direction
149 146 141 132 131 128 124 120 115 111 104 97 93 97 99 97 93 81 91 90 95 93 91 92 92 90 89 91 92 90 87 79 76 80 74 72 70 68 68 72 62 78 74
152 149 144 138 133 129 126 120 113 102 103 97 96 101 98 105 104 95 93 98 97 98 98 96 95 94 94 93 96 94 83 82 78 70 84 77 73 69 77 78 71 77 75
153 151 148 141 138 135 129 123 119 120 114 111 110 110 105 101 114 106 97 105 103 104 102 99 99 97 97 97 97 98 94 86 84 79 75 74 71 76 76 72 71 70 71
154 155 152 149 144 142 139 137 136 138 135 121 120 125 119 114 108 108 99 102 106 106 104 103 103 101 97 96 97 97 93 88 89 82 92 92 89 78 75 70 66 63 62
156 159 158 154 152 151 148 141 132 126 123 126 128 130 125 126 127 124 116 112 113 110 111 105 102 98 101 100 99 100 87 81 61 90 91 102 91 78 71 63 55 55 58
154 158 165 161 161 155 148 139 132 130 132 133 137 137 135 131 129 133 126 124 120 119 112 108 107 108 108 103 103 86 68 79 97 101 99 95 88 73 65 58 54 57 64
155 165 172 166 167 162 156 146 139 138 142 141 142 141 140 138 139 141 140 134 128 124 122 120 118 118 108 108 105 83 88 86 98 94 103 99 81 70 61 62 63 67 72
169 173 175 172 172 171 167 157 148 148 155 144 148 148 148 147 145 147 138 140 141 140 141 139 130 118 109 106 110 89 93 91 94 95 104 92 84 71 64 66 70 75 79
181 181 178 177 175 177 174 169 159 156 159 159 157 155 156 155 156 151 152 158 153 155 155 144 132 119 107 108 114 93 108 107 102 90 97 100 81 70 71 76 79 82 84
181 183 177 184 182 180 181 179 172 168 170 170 163 160 161 165 166 166 163 163 167 177 163 150 142 128 114 115 121 100 97 121 126 121 123 104 81 82 85 86 87 92 94
182 181 185 187 187 189 185 184 183 179 176 176 174 176 170 172 172 174 177 182 182 184 172 164 154 137 119 115 118 110 112 98 111 82 134 116 98 97 92 94 97 104 111
178 184 190 187 188 186 193 190 190 189 186 184 186 193 189 183 182 181 186 193 191 192 186 181 172 159 140 123 114 122 132 112 314 24 107 142 130 116 104 105 105 121 126
180 185 195 191 194 191 192 194 203 194 193 192 198 194 190 183 187 187 193 198 198 196 193 191 186 175 175 198 177 190 169 146 190 239 6 178 163 140 128 118 135 137 127
187 190 193 197 197 195 198 203 209 202 198 199 203 201 192 207 197 199 204 205 206 200 199 199 197 194 210 212 205 219 197 193 210 219 271 120 154 164 172 165 169 159 149
207 197 198 197 198 201 202 205 204 205 205 207 206 206 199 202 206 210 215 211 210 206 204 204 211 217 224 218 222 225 218 210 215 226 221 238 220 207 207 206 208 205 207
216 205 198 202 204 203 204 201 206 209 211 211 210 211 209 209 213 220 215 213 213 210 206 214 222 224 234 224 229 227 227 231 230 232 241 240 240 244 235 224 227 229 227
223 216 206 205 205 208 211 209 211 212 215 212 214 216 217 215 220 221 214 216 218 215 215 216 220 228 231 228 234 236 236 238 241 248 251 255 253 251 253 247 234 238 236
221 219 219 210 209 210 213 213 214 212 215 217 217 219 217 220 222 220 219 218 218 220 217 218 219 223 227 227 229 238 239 249 251 257 262 262 260 257 255 254 253 251 243
223 222 217 215 213 210 212 215 215 214 217 219 221 220 220 221 221 220 222 220 219 219 218 220 221 224 229 232 233 235 236 247 251 258 264 268 270 264 260 256 256 258 257
220 221 218 218 215 211 211 212 215 217 220 222 221 220 224 221 220 217 222 221 220 220 220 220 222 225 229 232 233 236 240 246 250 251 257 263 266 265 263 261 261 261 262
216 214 214 211 215 208 204 204 210 214 217 221 223 223 223 224 224 219 219 220 220 219 220 221 222 223 226 228 229 236 246 251 252 253 253 257 259 261 262 264 265 267 267
209 212 212 210 210 212 208 211 212 213 215 219 222 224 225 226 225 222 222 220 220 219 222 222 221 222 227 222 220 228 258 260 248 250 252 255 256 257 260 263 262 266 270
211 205 209 213 208 210 211 210 212 216 219 216 219 223 225 225 224 224 224 223 221 221 221 221 221 221 220 223 218 193 191 222 264 244 242 244 249 252 257 258 261 268 269
214 210 213 215 207 208 205 205 205 208 211 217 215 218 221 225 225 224 226 224 222 220 223 224 224 222 219 218 217 223 231 191 188 298 250 244 243 249 256 259 266 270 270
224 216 213 214 211 206 203 206 209 214 220 222 218 216 218 221 224 225 226 226 222 222 223 226 224 224 223 219 213 218 226 234 241 234 266 243 240 242 250 256 256 267 270
231 224 218 214 211 206 204 207 209 214 217 219 217 214 214 214 218 222 224 224 224 223 220 225 228 227 222 223 222 220 218 210 220 220 237 237 237 247 245 259 265 272 269